Location: Beaufort Park
(39.1418°N, 76.9433°W)
Time: 23:31:48
(UTC+00:00)

Okean-O - Pass Details

Date: 29 October 2020
Orbit: 638 x 641 km, 98.2° (Epoch: 03 December)

Event Time Altitude Azimuth Distance (km) Brightness Sun altitude
Rises 22:50:32 0° 136° (SE) 2,934 5.7 -8.5°
Reaches altitude 10° 22:53:01 10° 124° (ESE) 2,029 4.8 -9.0°
Maximum altitude 22:56:39 25° 68° (ENE) 1,282 3.6 -9.7°
Drops below altitude 10° 23:00:17 10° 13° (NNE) 2,040 5.0 -10.4°
Sets 23:02:47 0° 1° (N) 2,954 5.9 -10.9°
